Weather History for West Palm Beach, FL

Change the Weather History Date:

Monday, May 20, 2013

  Actual Average Record
Temperature  
Mean Temperature 74 °F 79 °F  
Max Temperature 80 °F 86 °F 97 °F (2008)
Min Temperature 68 °F 72 °F 58 °F (1979)
Degree Days  
Heating Degree Days 0 0  
Month to date heating degree days 0 0  
Since 1 July heating degree days 164 233  
Cooling Degree Days 9 14  
Month to date cooling degree days 213 250  
Year to date cooling degree days 1040 945  
Growing Degree Days 24 (Base 50)    
Moisture  
Dew Point 70 °F    
Average Humidity 84    
Maximum Humidity 93    
Minimum Humidity 74    
Precipitation  
Precipitation 6.77 in 0.16 in 7.14 in (1912)
Month to date precipitation 12.12 2.27  
Year to date precipitation 21.40 16.47  
Snow  
Snow 0.00 in - - ()
Month to date snowfall 0.0  
Since 1 July snowfall 0.0  
Snow Depth 0.00 in    
Sea Level Pressure  
Sea Level Pressure 30.05 in    
Wind  
Wind Speed 7 mph (ESE)    
Max Wind Speed 23 mph    
Max Gust Speed 32 mph    
Visibility 6 miles    
Events Fog , Rain , Thunderstorm    
T = Trace of Precipitation, MM = Missing Value Source: NWS Daily Summary

Daily Weather History Graph

Daily Weather History Graph

Search for Another Location

Airport:

Trip Planner

Search our weather history database for the weather conditions in past years. The results will help you decide how hot, cold, wet, or windy it might be!

Date:

Astronomy

May. 20, 2013 Rise Set
Actual Time 6:30 AM EDT 8:03 PM EDT
Civil Twilight 6:05 AM EDT 8:29 PM EDT
Nautical Twilight 5:34 AM EDT 8:59 PM EDT
Astronomical Twilight 5:03 AM EDT 9:31 PM EDT
Moon 3:33 PM EDT (5/20) 2:56 AM EDT (5/20)
Length of Visible Light 14h 23m
Length of Day
13h 33m
Waxing Gibbous, 75% of the Moon is Illuminated
May 20
Waxing Gibbous
May 25
Full
May 31
Last Quarter
Jun 8
New
Jun 16
First Quarter

Hourly Weather History & Observations

Time (EDT) Temp. Heat Index Dew Point Humidity Pressure Visibility Wind Dir Wind Speed Gust Speed Precip Events Conditions
12:53 AM 78.1 °F - 69.1 °F 74% 30.06 in 10.0 mi ESE 10.4 mph - N/A   Scattered Clouds
1:53 AM 78.1 °F - 70.0 °F 76% 30.04 in 10.0 mi SE 10.4 mph - N/A   Mostly Cloudy
2:53 AM 77.0 °F - 70.0 °F 79% 30.02 in 10.0 mi SE 8.1 mph - N/A   Scattered Clouds
3:53 AM 77.0 °F - 70.0 °F 79% 30.01 in 10.0 mi SE 6.9 mph - N/A   Scattered Clouds
4:53 AM 77.0 °F - 70.0 °F 79% 30.01 in 10.0 mi SSE 5.8 mph - N/A   Scattered Clouds
5:53 AM 77.0 °F - 70.0 °F 79% 30.01 in 10.0 mi SE 9.2 mph - N/A   Mostly Cloudy
6:53 AM 78.1 °F - 70.0 °F 76% 30.02 in 10.0 mi SE 6.9 mph - N/A   Mostly Cloudy
7:32 AM 78.8 °F - 71.6 °F 78% 30.04 in 10.0 mi SE 6.9 mph - N/A   Mostly Cloudy
7:53 AM 79.0 °F - 71.1 °F 77% 30.05 in 10.0 mi South 6.9 mph - N/A   Mostly Cloudy
8:53 AM 80.1 °F 83.6 °F 71.1 °F 74% 30.05 in 10.0 mi SE 10.4 mph - N/A   Mostly Cloudy
9:53 AM 75.9 °F - 69.1 °F 79% 30.06 in 10.0 mi SW 15.0 mph - 0.00 in   Mostly Cloudy
9:59 AM 75.2 °F - 69.8 °F 83% 30.06 in 7.0 mi SW 12.7 mph 21.9 mph 0.01 in Rain , Thunderstorm Thunderstorms and Rain
10:09 AM 75.2 °F - 69.8 °F 83% 30.07 in 2.0 mi South 13.8 mph - 0.05 in Rain , Thunderstorm Heavy Thunderstorms and Rain
10:21 AM 75.2 °F - 71.6 °F 89% 30.07 in 3.0 mi ESE 4.6 mph 23.0 mph 0.51 in Rain , Thunderstorm Thunderstorms and Rain
10:53 AM 75.9 °F - 73.0 °F 91% 30.06 in 4.0 mi NW 5.8 mph - 0.60 in Rain , Thunderstorm Thunderstorms and Rain
11:18 AM 73.4 °F - 71.6 °F 94% 30.07 in 2.0 mi West 17.3 mph 21.9 mph 0.16 in Rain , Thunderstorm Heavy Thunderstorms and Rain
11:20 AM 73.4 °F - 69.8 °F 88% 30.08 in 1.0 mi West 19.6 mph - 0.22 in Rain , Thunderstorm Heavy Thunderstorms and Rain
11:28 AM 71.6 °F - 69.8 °F 94% 30.09 in 1.0 mi WSW 18.4 mph - 0.59 in Rain , Thunderstorm Heavy Thunderstorms and Rain
11:33 AM 71.6 °F - 69.8 °F 94% 30.09 in 0.8 mi WNW 17.3 mph - 1.02 in Rain , Thunderstorm Heavy Thunderstorms and Rain
11:53 AM 71.1 °F - 70.0 °F 96% 30.08 in 0.8 mi WSW 6.9 mph - 2.23 in Rain , Thunderstorm Heavy Thunderstorms and Rain
12:00 PM 71.6 °F - 69.8 °F 94% 30.08 in 2.0 mi SW 3.5 mph - 0.14 in Rain , Thunderstorm Heavy Thunderstorms and Rain
12:14 PM 71.6 °F - 69.8 °F 94% 30.08 in 5.0 mi NNE 3.5 mph - 0.24 in Rain , Thunderstorm Light Thunderstorms and Rain
12:53 PM 72.0 °F - 70.0 °F 93% 30.09 in 7.0 mi ESE 10.4 mph - 0.26 in Rain , Thunderstorm Light Thunderstorms and Rain
1:00 PM 71.6 °F - 69.8 °F 94% 30.08 in 2.0 mi SE 9.2 mph - 0.02 in Rain , Thunderstorm Heavy Thunderstorms and Rain
1:19 PM 71.6 °F - 71.6 °F 100% 30.08 in 5.0 mi ESE 3.5 mph - 0.21 in Rain , Thunderstorm Light Thunderstorms and Rain
1:53 PM 73.0 °F - 70.0 °F 90% 30.07 in 7.0 mi NE 5.8 mph - 0.21 in Rain , Thunderstorm Light Thunderstorms and Rain
2:07 PM 73.4 °F - 69.8 °F 88% 30.07 in 7.0 mi Calm Calm - 0.00 in   Mostly Cloudy
2:53 PM 73.9 °F - 69.1 °F 85% 30.05 in 10.0 mi ESE 4.6 mph - 0.00 in Rain Light Rain
3:53 PM 75.9 °F - 70.0 °F 82% 30.05 in 10.0 mi SE 8.1 mph - 0.00 in   Mostly Cloudy
4:53 PM 75.9 °F - 71.1 °F 85% 30.02 in 10.0 mi ENE 3.5 mph - N/A   Mostly Cloudy
5:05 PM 75.2 °F - 71.6 °F 89% 30.02 in 10.0 mi Calm Calm - N/A   Mostly Cloudy
5:53 PM 75.9 °F - 70.0 °F 82% 30.00 in 10.0 mi ENE 3.5 mph - N/A   Mostly Cloudy
6:22 PM 75.2 °F - 71.6 °F 89% 30.00 in 10.0 mi ESE 3.5 mph - N/A   Mostly Cloudy
6:53 PM 75.9 °F - 71.1 °F 85% 29.99 in 10.0 mi East 6.9 mph - N/A   Mostly Cloudy
7:53 PM 75.9 °F - 72.0 °F 87% 30.03 in 10.0 mi NNE 4.6 mph - N/A   Mostly Cloudy
8:53 PM 75.9 °F - 72.0 °F 87% 30.03 in 10.0 mi NNE 4.6 mph - 0.00 in   Mostly Cloudy
9:53 PM 75.0 °F - 72.0 °F 90% 30.04 in 10.0 mi Calm Calm - N/A   Mostly Cloudy
10:06 PM 75.2 °F - 71.6 °F 89% 30.05 in 10.0 mi ENE 17.3 mph 20.7 mph N/A   Mostly Cloudy
10:13 PM 73.4 °F - 69.8 °F 88% 30.05 in 10.0 mi ENE 13.8 mph 21.9 mph N/A Thunderstorm Thunderstorm
10:25 PM 71.6 °F - 66.2 °F 83% 30.06 in 2.0 mi NE 23.0 mph 29.9 mph 0.04 in Rain , Thunderstorm Heavy Thunderstorms and Rain
10:28 PM 69.8 °F - 66.2 °F 88% 30.07 in 1.2 mi NNE 20.7 mph 29.9 mph 0.10 in Rain , Thunderstorm Heavy Thunderstorms and Rain
10:31 PM 69.8 °F - 66.2 °F 88% 30.06 in 0.2 mi North 20.7 mph 29.9 mph 0.30 in Fog , Rain , Thunderstorm Heavy Thunderstorms and Rain
10:35 PM 69.8 °F - 66.2 °F 88% 30.06 in 0.2 mi North 15.0 mph 32.2 mph 0.59 in Fog , Rain , Thunderstorm Heavy Thunderstorms and Rain
10:45 PM 68.0 °F - 66.2 °F 94% 30.07 in 0.2 mi North 6.9 mph 21.9 mph 1.14 in Fog , Rain , Thunderstorm Heavy Thunderstorms and Rain
10:53 PM 68.0 °F - 66.0 °F 93% 30.09 in 0.2 mi SW 4.6 mph - 1.33 in Fog , Rain , Thunderstorm Heavy Thunderstorms and Rain
11:00 PM 69.8 °F - 66.2 °F 88% 30.08 in 1.0 mi South 5.8 mph 16.1 mph 0.41 in Rain , Thunderstorm Heavy Thunderstorms and Rain
11:06 PM 69.8 °F - 66.2 °F 88% 30.06 in 2.0 mi West 9.2 mph 16.1 mph 0.58 in Rain , Thunderstorm Heavy Thunderstorms and Rain
11:16 PM 69.8 °F - 66.2 °F 88% 30.08 in 2.0 mi SSE 9.2 mph - 0.70 in Rain , Thunderstorm Heavy Thunderstorms and Rain
11:22 PM 69.8 °F - 66.2 °F 88% 30.08 in 1.0 mi SSE 13.8 mph 19.6 mph 0.98 in Rain , Thunderstorm Heavy Thunderstorms and Rain
11:41 PM 69.8 °F - 69.8 °F 100% 30.06 in 2.0 mi East 12.7 mph - 1.94 in Rain , Thunderstorm Heavy Thunderstorms and Rain
11:53 PM 71.1 °F - 69.1 °F 93% 30.06 in 2.5 mi SE 13.8 mph - 2.08 in Rain , Thunderstorm Heavy Thunderstorms and Rain